Time,TemperatureF,DewpointF,PressureIn,WindDirection,WindDirectionDegrees,WindSpeedMPH,WindSpeedGustMPH,Humidity,HourlyPrecipIn,Conditions,Clouds,dailyrainin,SoftwareType,DateUTC
2013-09-10 00:00:00,72.3,40.0,29.74,West,266,16.0,20.0,31,0.00,,,0.00,weatherlink.com 1.10,2013-09-10 07:00:00,
2013-09-10 00:15:00,72.6,38.0,29.74,West,271,14.0,22.0,28,0.00,,,0.00,weatherlink.com 1.10,2013-09-10 07:15:00,
2013-09-10 00:31:00,71.6,37.0,29.75,West,270,16.0,18.0,28,0.00,,,0.00,weatherlink.com 1.10,2013-09-10 07:31:00,
2013-09-10 00:46:00,71.7,36.0,29.74,WSW,250,13.0,23.0,27,0.00,,,0.00,weatherlink.com 1.10,2013-09-10 07:46:00,
2013-09-10 01:01:00,71.5,37.0,29.74,WNW,300,12.0,20.0,28,0.00,,,0.00,weatherlink.com 1.10,2013-09-10 08:01:00,
2013-09-10 01:16:00,71.2,36.0,29.74,West,262,13.0,25.0,28,0.00,,,0.00,weatherlink.com 1.10,2013-09-10 08:16:00,
2013-09-10 01:31:00,71.2,37.0,29.74,WNW,296,11.0,17.0,29,0.00,,,0.00,weatherlink.com 1.10,2013-09-10 08:31:00,
2013-09-10 01:46:00,70.7,37.0,29.74,WNW,300,12.0,16.0,29,0.00,,,0.00,weatherlink.com 1.10,2013-09-10 08:46:00,
2013-09-10 02:01:00,70.4,37.0,29.74,WSW,240,18.0,21.0,30,0.00,,,0.00,weatherlink.com 1.10,2013-09-10 09:01:00,
2013-09-10 02:16:00,70.1,38.0,29.75,West,276,11.0,21.0,31,0.00,,,0.00,weatherlink.com 1.10,2013-09-10 09:16:00,
2013-09-10 02:31:00,69.4,38.0,29.74,WNW,286,12.0,21.0,32,0.00,,,0.00,weatherlink.com 1.10,2013-09-10 09:31:00,
2013-09-10 02:46:00,69.2,37.0,29.75,West,278,8.0,18.0,31,0.00,,,0.00,weatherlink.com 1.10,2013-09-10 09:46:00,
2013-09-10 03:01:00,69.2,38.0,29.75,WSW,258,7.0,23.0,32,0.00,,,0.00,weatherlink.com 1.10,2013-09-10 10:01:00,
2013-09-10 03:16:00,69.6,38.0,29.74,WNW,283,8.0,33.0,32,0.00,,,0.00,weatherlink.com 1.10,2013-09-10 10:16:00,
2013-09-10 03:31:00,68.9,39.0,29.75,West,263,16.0,28.0,33,0.00,,,0.00,weatherlink.com 1.10,2013-09-10 10:31:00,
2013-09-10 03:46:00,69.1,39.0,29.75,West,262,12.0,22.0,33,0.00,,,0.00,weatherlink.com 1.10,2013-09-10 10:46:00,
2013-09-10 04:02:00,68.6,39.0,29.76,WSW,255,12.0,21.0,34,0.00,,,0.00,weatherlink.com 1.10,2013-09-10 11:02:00,
2013-09-10 04:16:00,68.4,39.0,29.76,SW,228,14.0,23.0,34,0.00,,,0.00,weatherlink.com 1.10,2013-09-10 11:16:00,
2013-09-10 04:31:00,68.4,38.0,29.76,West,267,22.0,23.0,33,0.00,,,0.00,weatherlink.com 1.10,2013-09-10 11:31:00,
2013-09-10 04:46:00,68.1,37.0,29.76,WSW,256,15.0,24.0,32,0.00,,,0.00,weatherlink.com 1.10,2013-09-10 11:46:00,
2013-09-10 05:01:00,68.1,37.0,29.77,West,264,9.0,20.0,32,0.00,,,0.00,weatherlink.com 1.10,2013-09-10 12:01:00,
2013-09-10 05:16:00,68.0,37.0,29.77,West,264,12.0,21.0,32,0.00,,,0.00,weatherlink.com 1.10,2013-09-10 12:16:00,
2013-09-10 05:31:00,68.3,36.0,29.77,West,269,12.0,24.0,31,0.00,,,0.00,weatherlink.com 1.10,2013-09-10 12:31:00,
2013-09-10 05:46:00,68.0,36.0,29.77,West,278,13.0,21.0,31,0.00,,,0.00,weatherlink.com 1.10,2013-09-10 12:46:00,
2013-09-10 06:01:00,67.9,35.0,29.77,WSW,248,16.0,24.0,30,0.00,,,0.00,weatherlink.com 1.10,2013-09-10 13:01:00,
2013-09-10 06:16:00,68.1,35.0,29.78,WSW,248,11.0,20.0,29,0.00,,,0.00,weatherlink.com 1.10,2013-09-10 13:16:00,
2013-09-10 06:31:00,68.4,35.0,29.78,SW,236,15.0,23.0,29,0.00,,,0.00,weatherlink.com 1.10,2013-09-10 13:31:00,
2013-09-10 06:46:00,68.5,34.0,29.79,WSW,256,9.0,21.0,28,0.00,,,0.00,weatherlink.com 1.10,2013-09-10 13:46:00,
2013-09-10 07:01:00,68.6,34.0,29.80,West,276,12.0,20.0,28,0.00,,,0.00,weatherlink.com 1.10,2013-09-10 14:01:00,
2013-09-10 07:16:00,69.0,34.0,29.80,WNW,288,12.0,20.0,28,0.00,,,0.00,weatherlink.com 1.10,2013-09-10 14:16:00,
2013-09-10 07:32:00,69.5,34.0,29.81,West,276,12.0,21.0,27,0.00,,,0.00,weatherlink.com 1.10,2013-09-10 14:32:00,
2013-09-10 07:47:00,69.7,34.0,29.81,WSW,253,19.0,23.0,27,0.00,,,0.00,weatherlink.com 1.10,2013-09-10 14:47:00,
2013-09-10 08:02:00,69.8,34.0,29.81,West,271,9.0,22.0,27,0.00,,,0.00,weatherlink.com 1.10,2013-09-10 15:02:00,
2013-09-10 08:17:00,70.6,34.0,29.82,West,271,13.0,21.0,26,0.00,,,0.00,weatherlink.com 1.10,2013-09-10 15:17:00,
2013-09-10 08:32:00,70.9,34.0,29.82,West,260,13.0,19.0,26,0.00,,,0.00,weatherlink.com 1.10,2013-09-10 15:32:00,
2013-09-10 08:47:00,71.8,36.0,29.83,West,274,12.0,18.0,27,0.00,,,0.00,weatherlink.com 1.10,2013-09-10 15:47:00,
2013-09-10 09:02:00,72.2,36.0,29.84,West,281,6.0,17.0,27,0.00,,,0.00,weatherlink.com 1.10,2013-09-10 16:02:00,
2013-09-10 09:17:00,72.6,36.0,29.84,WNW,289,11.0,19.0,26,0.00,,,0.00,weatherlink.com 1.10,2013-09-10 16:17:00,
2013-09-10 09:32:00,73.3,35.0,29.84,SW,236,6.0,16.0,25,0.00,,,0.00,weatherlink.com 1.10,2013-09-10 16:32:00,
2013-09-10 09:47:00,74.3,35.0,29.84,West,281,10.0,19.0,24,0.00,,,0.00,weatherlink.com 1.10,2013-09-10 16:47:00,
2013-09-10 10:02:00,75.1,35.0,29.84,West,274,4.0,16.0,23,0.00,,,0.00,weatherlink.com 1.10,2013-09-10 17:02:00,
2013-09-10 10:17:00,76.0,33.0,29.85,West,266,8.0,19.0,21,0.00,,,0.00,weatherlink.com 1.10,2013-09-10 17:17:00,
2013-09-10 10:32:00,76.8,33.0,29.85,West,273,4.0,17.0,20,0.00,,,0.00,weatherlink.com 1.10,2013-09-10 17:32:00,
2013-09-10 10:47:00,77.4,33.0,29.85,WSW,243,13.0,17.0,20,0.00,,,0.00,weatherlink.com 1.10,2013-09-10 17:47:00,
2013-09-10 11:02:00,77.8,34.0,29.85,WSW,249,6.0,17.0,20,0.00,,,0.00,weatherlink.com 1.10,2013-09-10 18:02:00,
2013-09-10 11:17:00,77.8,34.0,29.85,West,270,11.0,20.0,20,0.00,,,0.00,weatherlink.com 1.10,2013-09-10 18:17:00,
2013-09-10 11:32:00,77.9,34.0,29.85,West,274,9.0,21.0,20,0.00,,,0.00,weatherlink.com 1.10,2013-09-10 18:32:00,
2013-09-10 11:47:00,78.4,35.0,29.84,West,259,9.0,20.0,21,0.00,,,0.00,weatherlink.com 1.10,2013-09-10 18:47:00,
2013-09-10 12:02:00,78.2,35.0,29.84,WSW,250,13.0,24.0,21,0.00,,,0.00,weatherlink.com 1.10,2013-09-10 19:02:00,
2013-09-10 12:17:00,78.7,36.0,29.84,West,281,10.0,22.0,21,0.00,,,0.00,weatherlink.com 1.10,2013-09-10 19:17:00,
2013-09-10 12:32:00,78.9,36.0,29.84,WNW,284,7.0,20.0,21,0.00,,,0.00,weatherlink.com 1.10,2013-09-10 19:32:00,
2013-09-10 12:47:00,79.2,36.0,29.84,West,280,10.0,22.0,21,0.00,,,0.00,weatherlink.com 1.10,2013-09-10 19:47:00,
2013-09-10 13:02:00,79.7,35.0,29.84,West,273,10.0,20.0,20,0.00,,,0.00,weatherlink.com 1.10,2013-09-10 20:02:00,
2013-09-10 13:17:00,79.7,34.0,29.84,West,268,18.0,21.0,19,0.00,,,0.00,weatherlink.com 1.10,2013-09-10 20:17:00,
2013-09-10 13:32:00,79.7,34.0,29.83,West,264,17.0,23.0,19,0.00,,,0.00,weatherlink.com 1.10,2013-09-10 20:32:00,
2013-09-10 13:47:00,79.8,35.0,29.83,West,275,15.0,22.0,20,0.00,,,0.00,weatherlink.com 1.10,2013-09-10 20:47:00,
2013-09-10 14:02:00,80.1,36.0,29.82,SW,231,17.0,21.0,20,0.00,,,0.00,weatherlink.com 1.10,2013-09-10 21:02:00,
2013-09-10 14:17:00,80.1,36.0,29.82,West,279,13.0,22.0,20,0.00,,,0.00,weatherlink.com 1.10,2013-09-10 21:17:00,
2013-09-10 14:32:00,80.0,34.0,29.82,West,261,11.0,22.0,19,0.00,,,0.00,weatherlink.com 1.10,2013-09-10 21:32:00,
2013-09-10 14:47:00,79.7,35.0,29.82,West,279,13.0,24.0,20,0.00,,,0.00,weatherlink.com 1.10,2013-09-10 21:47:00,
2013-09-10 15:02:00,79.2,33.0,29.82,West,262,13.0,23.0,19,0.00,,,0.00,weatherlink.com 1.10,2013-09-10 22:02:00,
2013-09-10 15:17:00,78.6,34.0,29.81,SW,233,19.0,26.0,20,0.00,,,0.00,weatherlink.com 1.10,2013-09-10 22:17:00,
2013-09-10 15:32:00,78.7,36.0,29.82,WSW,251,15.0,26.0,21,0.00,,,0.00,weatherlink.com 1.10,2013-09-10 22:32:00,
2013-09-10 15:47:00,78.0,36.0,29.81,WSW,255,15.0,27.0,22,0.00,,,0.00,weatherlink.com 1.10,2013-09-10 22:47:00,
2013-09-10 16:02:00,77.8,37.0,29.81,West,264,22.0,26.0,23,0.00,,,0.00,weatherlink.com 1.10,2013-09-10 23:02:00,
2013-09-10 16:18:00,77.7,37.0,29.81,West,278,12.0,26.0,23,0.00,,,0.00,weatherlink.com 1.10,2013-09-10 23:18:00,
2013-09-10 16:33:00,77.6,35.0,29.81,West,266,11.0,28.0,21,0.00,,,0.00,weatherlink.com 1.10,2013-09-10 23:33:00,
2013-09-10 16:48:00,77.4,36.0,29.82,WSW,248,21.0,28.0,22,0.00,,,0.00,weatherlink.com 1.10,2013-09-10 23:48:00,
2013-09-10 17:03:00,76.8,35.0,29.81,West,263,17.0,27.0,22,0.00,,,0.00,weatherlink.com 1.10,2013-09-11 00:03:00,
2013-09-10 17:18:00,76.4,36.0,29.82,West,270,16.0,28.0,23,0.00,,,0.00,weatherlink.com 1.10,2013-09-11 00:18:00,
2013-09-10 17:33:00,75.5,37.0,29.82,West,271,13.0,30.0,25,0.00,,,0.00,weatherlink.com 1.10,2013-09-11 00:33:00,
2013-09-10 17:48:00,74.9,38.0,29.82,West,281,23.0,29.0,26,0.00,,,0.00,weatherlink.com 1.10,2013-09-11 00:48:00,
2013-09-10 18:03:00,74.1,39.0,29.83,SW,231,18.0,31.0,28,0.00,,,0.00,weatherlink.com 1.10,2013-09-11 01:03:00,
2013-09-10 18:18:00,73.4,38.0,29.83,WSW,245,18.0,32.0,28,0.00,,,0.00,weatherlink.com 1.10,2013-09-11 01:18:00,
2013-09-10 18:33:00,72.6,39.0,29.84,West,273,18.0,26.0,30,0.00,,,0.00,weatherlink.com 1.10,2013-09-11 01:33:00,
2013-09-10 18:48:00,71.6,37.0,29.84,WSW,244,15.0,24.0,28,0.00,,,0.00,weatherlink.com 1.10,2013-09-11 01:48:00,
2013-09-10 19:03:00,71.1,37.0,29.84,WSW,246,15.0,24.0,29,0.00,,,0.00,weatherlink.com 1.10,2013-09-11 02:03:00,
2013-09-10 19:18:00,70.8,36.0,29.85,WSW,257,15.0,24.0,28,0.00,,,0.00,weatherlink.com 1.10,2013-09-11 02:18:00,
2013-09-10 19:33:00,70.2,36.0,29.85,SW,229,20.0,27.0,29,0.00,,,0.00,weatherlink.com 1.10,2013-09-11 02:33:00,
2013-09-10 19:48:00,69.9,36.0,29.85,West,262,17.0,26.0,29,0.00,,,0.00,weatherlink.com 1.10,2013-09-11 02:48:00,
2013-09-10 20:03:00,70.1,34.0,29.86,West,259,13.0,25.0,27,0.00,,,0.00,weatherlink.com 1.10,2013-09-11 03:03:00,
2013-09-10 20:18:00,69.8,38.0,29.86,WSW,247,11.0,27.0,31,0.00,,,0.00,weatherlink.com 1.10,2013-09-11 03:18:00,
2013-09-10 20:48:00,69.0,39.0,29.87,SW,221,17.0,27.0,34,0.00,,,0.00,weatherlink.com 1.10,2013-09-11 03:48:00,
2013-09-10 21:03:00,68.8,40.0,29.87,West,262,17.0,27.0,35,0.00,,,0.00,weatherlink.com 1.10,2013-09-11 04:03:00,
2013-09-10 21:18:00,69.3,39.0,29.87,WSW,257,13.0,22.0,33,0.00,,,0.00,weatherlink.com 1.10,2013-09-11 04:18:00,
2013-09-10 21:33:00,68.8,39.0,29.88,WSW,258,15.0,28.0,34,0.00,,,0.00,weatherlink.com 1.10,2013-09-11 04:33:00,
2013-09-10 21:48:00,68.8,38.0,29.88,West,274,11.0,28.0,33,0.00,,,0.00,weatherlink.com 1.10,2013-09-11 04:48:00,
2013-09-10 22:03:00,69.4,39.0,29.88,West,264,15.0,27.0,33,0.00,,,0.00,weatherlink.com 1.10,2013-09-11 05:03:00,
2013-09-10 22:18:00,69.0,39.0,29.88,WSW,252,10.0,25.0,34,0.00,,,0.00,weatherlink.com 1.10,2013-09-11 05:18:00,
2013-09-10 22:33:00,68.6,41.0,29.88,West,274,18.0,24.0,37,0.00,,,0.00,weatherlink.com 1.10,2013-09-11 05:33:00,
2013-09-10 22:48:00,68.2,41.0,29.88,WSW,256,18.0,28.0,37,0.00,,,0.00,weatherlink.com 1.10,2013-09-11 05:48:00,
2013-09-10 23:03:00,68.8,39.0,29.88,West,260,15.0,26.0,34,0.00,,,0.00,weatherlink.com 1.10,2013-09-11 06:03:00,
2013-09-10 23:18:00,68.6,39.0,29.88,West,266,18.0,25.0,34,0.00,,,0.00,weatherlink.com 1.10,2013-09-11 06:18:00,
2013-09-10 23:33:00,68.4,39.0,29.88,WSW,256,22.0,30.0,34,0.00,,,0.00,weatherlink.com 1.10,2013-09-11 06:33:00,
2013-09-10 23:48:00,68.2,39.0,29.88,West,260,9.0,25.0,35,0.00,,,0.00,weatherlink.com 1.10,2013-09-11 06:48:00,